Погода в Межевом

Украина / Донецкая область     47°57′59″N   38°04′14″E
темп.,
°C
ветер,
м/с
пор.,
м/с
влажн.,
%
обл.,
%
осадки,
мм/ч
давл.,
гПа
погр.,
м
19 мая, ср
ср1900:00+14ю4108744 0.1 1007610
03:00+13ююв3695100 0.4 1006304
06:00+14ююв3596100 1.4 1006290
09:00+13ю5890100 3.8 1007427
12:00+15ююв6870100 0.6 10071034
15:00+17ююз7105787 1.3 10071750
18:00+16ююз6107098 1.3 10071197
21:00+13ю61288100 1.6 1007847
20 мая, чт
чт2000:00+13ююз61190100 0.1 1007889
03:00+12юз61188100 0.4 1008822
06:00+12юз51189100 0.3 1009669
09:00+12юз5108794 0.4 1010678
12:00+18зюз6105483 0.1 10111761
15:00+20зюз58446 0.1 10111928
18:00+21зюз464311 0.0 10111483
21:00+15ю257466 0.0 1013137
21 мая, пт
пт2100:00+14вюв1274100 0.0 101343
03:00+13св247067 0.0 101379
06:00+14всв3968100 0.0 1013223
09:00+17всв51165100 0.0 1012531
12:00+20в5756100 0.0 1011642
15:00+22вюв5755100 0.0 1010681
18:00+23в475938 0.0 1010782
21:00+19св38796 0.0 1010212
22 мая, сб
сб2200:00+17ссв37816 0.0 1009193
03:00+15с3586100 0.0 1009128
06:00+16с35826 0.0 1009156
09:00+21ссв3462100 0.0 1010530
12:00+25всв4554100 0.0 1010788
15:00+25в4455100 0.0 1010753
18:00+22ссв4665100 0.0 1008145
21:00+20св3106788 0.0 1009295
23 мая, вс
вс2300:00+19сз227284 0.0 100948
03:00+18ссз3676100 0.0 1007115
06:00+18ссв2478100 0.0 1007141
09:00+22ссз2261100 0.0 1006376
12:00+27с2245100 0.0 10051001
15:00+30сз223811 0.0 10041648
18:00+27сз55500 0.0 10051025
21:00+23сз36693 0.0 1007262